Theta_e
324 324 325 327 329 334 336 345 349 346 348 349 354 359 364 360 358 360 357 352 351 351 346 341 340 340 341 343 347 347 347 350 350 350 347 348 350 352 352 351 355 353 352 352
326 326 325 326 328 330 335 341 346 345 347 346 352 357 356 360 361 357 359 357 353 350 345 343 342 341 341 342 345 347 348 352 351 349 347 347 350 350 351 352 353 353 352 353
326 326 326 325 329 333 337 340 343 346 340 340 340 348 352 351 354 360 358 356 352 348 345 347 345 344 343 343 344 347 349 352 353 350 352 352 353 353 352 353 353 354 354 353
325 325 325 326 333 334 336 336 340 339 340 345 340 347 352 351 353 356 358 358 353 350 346 348 347 347 346 344 343 345 349 351 354 353 352 352 351 350 351 352 353 353 354 353
325 325 325 328 332 332 332 332 338 337 337 340 340 341 346 352 353 356 356 357 355 352 350 349 348 348 347 345 341 344 349 351 352 354 356 353 354 350 351 351 354 355 355 356
327 325 327 328 330 333 335 333 336 337 337 337 337 339 347 348 351 349 352 355 355 352 352 349 348 349 348 346 345 343 350 352 353 355 355 356 353 352 352 353 354 353 353 354
329 329 326 329 332 334 336 336 336 335 337 337 334 334 348 345 344 344 342 353 353 354 353 351 351 350 349 347 346 348 349 353 354 355 356 356 356 353 353 355 353 352 352 354
329 330 328 330 334 335 335 335 335 335 333 333 332 340 346 344 345 346 347 349 351 352 354 353 351 351 350 349 349 348 353 355 356 355 355 357 357 355 351 351 349 351 350 352
328 328 325 327 332 331 335 335 332 331 331 331 338 344 341 344 346 348 350 352 353 350 353 354 352 352 351 351 351 350 353 356 357 358 356 357 358 357 352 349 349 353 352 350
327 327 324 323 324 327 329 333 334 332 335 333 336 343 343 346 347 347 351 356 354 354 353 352 352 353 352 352 351 352 353 356 357 358 358 357 358 358 358 354 352 348 348 352
325 326 324 323 325 326 329 331 333 332 331 334 337 342 341 345 344 348 351 350 350 350 350 352 351 348 351 352 352 352 354 355 357 358 357 357 357 358 359 357 355 354 351 352
324 325 326 323 324 324 326 329 332 334 334 331 333 337 339 342 342 348 346 342 342 342 344 345 346 349 351 352 353 354 352 353 354 357 358 357 357 357 357 358 356 355 354 352
324 324 327 325 324 323 325 326 328 330 330 333 333 339 338 341 341 344 344 343 339 338 339 341 341 340 342 346 349 349 353 351 353 354 356 357 357 358 357 357 357 355 354 353
322 323 325 326 327 324 325 325 325 327 330 331 332 340 341 342 341 342 340 339 338 338 338 336 338 338 338 339 341 343 347 352 352 353 354 356 357 358 358 357 357 356 355 355
323 323 323 324 321 323 324 324 323 325 326 329 337 339 338 337 338 338 337 336 335 334 333 333 334 335 336 336 335 336 340 345 352 352 352 355 356 358 358 358 358 357 356 356
322 325 325 322 320 320 321 321 321 322 324 327 336 336 333 331 329 331 331 331 331 331 330 329 329 328 330 334 334 331 333 338 347 349 351 352 353 356 358 358 358 358 357 357
323 324 325 324 322 320 320 321 320 321 321 324 332 332 329 328 326 327 327 327 327 327 327 327 326 325 324 325 330 332 330 334 338 342 344 350 352 352 354 356 357 358 358 358
321 323 323 323 322 322 322 321 320 320 321 325 328 327 327 325 323 325 324 324 324 324 323 323 322 323 323 323 322 326 331 331 331 331 334 337 343 348 351 352 354 354 356 358
318 320 321 322 322 320 320 320 320 320 324 323 325 323 321 320 322 324 321 319 319 320 319 320 320 319 320 322 322 322 325 330 331 329 328 330 336 340 342 349 352 351 352 354
317 320 321 321 321 320 322 318 319 318 324 321 322 321 320 319 319 327 320 317 317 316 317 317 317 318 319 320 320 322 323 323 328 328 328 328 328 334 339 342 346 349 353 355
320 320 322 323 322 323 321 317 317 319 324 320 318 318 317 319 320 317 316 316 315 315 315 315 315 316 317 318 319 321 322 323 324 325 326 327 329 327 328 336 341 347 350 352
322 324 323 323 323 324 319 317 318 323 319 316 316 315 316 316 315 315 315 315 314 314 314 314 315 315 316 316 317 319 321 322 323 326 325 325 326 328 327 331 338 340 345 347
324 321 327 322 326 323 318 319 319 318 317 315 315 313 313 313 313 313 313 314 313 313 313 313 314 314 315 315 316 318 319 321 321 323 326 325 325 325 326 327 329 334 339 342
318 319 321 320 320 319 317 316 314 313 314 313 313 312 312 313 313 313 313 313 312 312 311 312 313 313 313 313 313 315 316 318 320 321 324 326 324 323 323 324 325 326 331 336
320 319 319 319 318 317 316 314 314 313 313 312 312 312 312 312 312 311 311 311 310 310 311 310 309 310 311 312 313 313 315 316 319 320 321 323 324 322 321 322 321 323 325 326
317 318 321 322 318 317 316 315 315 314 314 313 313 313 312 311 311 310 310 310 309 309 308 308 308 308 309 309 311 312 313 316 318 320 320 321 322 322 321 320 319 320 321 323
Wind_Speed
17 13 17 20 21 20 17 20 15 12 15 12 10 13 21 16 13 14 12 14 13 17 19 21 21 20 19 18 18 16 15 15 15 14 13 11 10 8 5 3 6 6 5 6
13 18 16 15 16 19 15 21 14 13 9 9 16 19 16 18 21 16 15 16 17 16 18 21 20 20 20 19 19 18 17 16 15 13 13 9 12 10 7 6 7 7 6 6
15 15 16 13 14 13 17 16 13 15 8 16 14 14 11 12 11 23 19 17 18 16 19 17 22 23 20 20 20 21 20 18 17 13 9 7 3 9 8 7 7 8 8 7
16 10 17 13 15 17 18 16 10 12 15 12 15 9 19 20 16 11 15 18 16 18 20 18 23 22 22 21 21 20 20 19 18 14 13 10 10 12 13 11 10 10 8 8
17 12 13 16 17 16 11 15 3 14 14 11 16 8 8 21 18 16 17 16 16 22 19 20 23 22 22 21 22 21 21 20 19 18 10 11 13 11 9 6 11 8 10 8
16 11 13 18 16 16 5 13 9 9 14 14 12 14 12 8 12 4 15 17 17 19 16 19 26 25 23 23 23 22 21 21 20 19 16 11 8 9 7 14 9 8 9 12
13 10 17 13 17 14 11 15 11 11 11 11 16 16 11 10 7 2 11 19 15 20 20 14 16 23 23 24 24 24 23 22 22 21 19 18 12 8 7 3 5 7 10 13
12 14 12 13 17 12 17 20 12 12 13 14 17 9 9 10 8 7 7 3 19 15 20 17 18 20 23 23 24 23 27 24 22 22 22 19 17 15 12 11 12 12 11 13
14 11 7 6 14 5 18 20 23 12 14 14 13 19 12 12 12 11 12 7 7 15 12 17 16 23 23 23 23 24 23 26 24 23 23 21 20 19 15 10 12 13 13 13
6 11 13 10 8 13 13 15 19 9 13 18 16 17 13 14 13 12 13 20 19 20 14 9 10 6 20 25 25 23 24 23 23 22 23 22 22 20 18 15 14 13 11 14
10 5 11 6 15 16 12 13 20 13 15 13 11 10 19 14 14 14 20 16 14 15 15 16 13 9 16 14 17 22 23 22 22 22 22 22 21 21 19 20 18 16 15 13
4 7 12 17 5 6 11 13 16 11 19 13 4 10 14 16 16 20 17 12 14 15 16 14 17 20 22 23 22 10 23 23 22 21 21 22 21 20 21 21 21 20 18 18
2 9 6 6 8 9 11 10 12 18 17 14 15 12 10 15 14 16 17 15 12 13 14 13 18 20 20 19 21 24 17 17 20 21 21 22 22 21 22 22 21 21 21 21
4 12 9 4 9 15 18 7 12 13 11 12 8 24 19 16 16 14 15 14 13 13 13 13 15 19 20 21 22 24 27 30 17 14 22 21 21 21 21 21 21 22 22 22
5 9 5 3 6 7 10 14 7 15 16 9 20 20 17 16 13 12 14 12 12 13 14 14 14 16 20 22 25 24 23 22 23 17 7 17 19 19 20 20 20 21 22 23
3 4 9 7 1 1 6 7 5 6 2 7 23 17 15 11 12 10 10 11 11 12 12 13 14 17 17 20 20 22 23 22 20 24 18 10 8 14 18 19 20 20 22 23
5 5 7 12 6 6 11 13 11 9 5 9 13 18 12 11 8 8 9 10 10 10 11 11 12 16 16 17 19 20 19 21 20 21 23 13 11 10 13 15 17 19 20 22
5 9 9 11 5 11 3 6 3 8 9 6 14 12 12 9 7 11 8 8 8 9 9 10 12 13 14 15 16 16 16 17 20 21 20 20 17 15 12 13 14 16 19 20
4 7 7 11 10 5 7 5 6 11 11 2 12 9 9 7 8 10 8 6 6 7 9 10 11 12 12 13 15 15 15 14 14 16 18 20 19 18 16 15 13 18 19 19
5 7 6 7 11 15 14 11 4 1 11 8 6 8 6 6 10 11 3 5 6 7 8 10 12 12 11 12 14 14 14 14 13 15 14 15 14 14 14 16 16 14 19 20
7 7 10 10 8 4 11 8 5 9 6 10 7 7 3 2 10 7 6 7 9 9 9 10 10 11 12 13 13 14 14 13 14 15 15 14 14 16 14 16 18 14 16 16
7 5 6 9 10 10 12 7 5 9 10 10 7 6 7 6 3 5 5 7 9 10 11 12 12 11 12 13 15 15 14 15 16 15 16 15 14 14 14 15 16 16 13 13
5 2 4 3 5 7 8 6 9 8 10 7 7 7 4 2 3 3 4 5 8 9 11 12 13 14 13 11 13 18 19 17 18 19 16 16 15 14 12 14 13 16 14 13
7 2 2 4 8 4 8 6 4 4 8 7 5 5 3 2 3 3 4 6 7 10 11 14 13 13 14 16 18 21 22 22 20 19 20 17 17 16 15 13 13 14 16 13
6 7 8 9 4 6 8 8 7 7 7 6 5 3 2 2 3 5 5 5 6 8 9 10 13 15 15 15 16 18 21 22 23 21 21 20 18 19 17 16 14 15 17 17
9 9 7 5 7 10 8 12 11 10 8 5 4 4 2 2 3 6 5 6 7 7 9 9 12 14 17 18 19 17 18 21 24 23 22 21 21 16 19 20 20 18 19 19
Wind_Direction
198 211 208 201 210 230 206 228 198 167 151 205 142 119 138 153 160 166 189 180 184 199 172 170 177 176 172 170 169 172 174 162 171 171 179 171 159 142 182 175 132 141 151 159
185 218 211 227 214 238 245 216 199 128 150 248 151 159 136 163 157 170 184 197 189 197 169 171 176 174 174 175 174 174 175 169 181 175 192 188 162 184 188 183 156 161 166 165
210 206 227 217 205 211 232 217 188 158 172 244 159 139 155 168 182 165 176 194 188 186 175 171 177 173 178 178 180 179 179 175 186 186 190 192 188 156 169 167 169 172 175 174
231 219 205 205 195 216 205 235 181 192 191 203 219 179 171 163 167 190 177 183 180 180 194 174 172 183 180 174 185 180 182 180 186 196 174 177 200 203 179 175 180 152 169 181
212 195 200 205 216 204 234 211 243 173 216 200 185 226 175 156 171 174 180 182 175 178 205 183 184 186 180 174 178 181 182 184 187 195 213 182 234 156 193 152 153 139 162 182
242 211 191 210 213 192 262 160 210 210 233 242 195 227 182 124 113 144 175 183 193 165 186 189 186 182 183 179 176 179 184 187 190 194 204 214 216 269 194 153 170 183 179 178
218 223 197 227 201 186 183 191 187 202 215 224 208 209 85 97 96 181 198 174 197 170 169 205 178 175 182 183 185 179 182 191 195 197 199 203 206 225 261 155 201 201 222 230
198 184 177 207 232 177 203 208 198 189 205 203 185 154 111 103 103 70 78 201 175 210 162 173 185 180 187 189 189 193 175 190 199 204 206 205 201 206 217 207 241 198 212 231
183 160 115 238 237 273 198 234 234 274 200 214 120 100 118 115 109 112 99 67 118 185 174 162 203 178 182 190 192 195 190 190 201 205 206 208 206 210 210 223 214 212 227 243
270 130 188 173 251 244 266 220 240 241 238 208 150 159 136 139 108 90 85 54 30 20 22 31 348 247 186 189 195 200 200 200 204 209 207 208 210 211 210 204 213 226 241 191
304 197 168 169 206 206 213 241 235 231 256 213 154 112 118 119 118 109 69 51 44 39 37 24 16 290 292 207 194 199 201 205 209 213 213 210 212 211 210 207 209 213 224 236
292 274 162 202 80 314 295 230 235 239 227 267 315 99 121 131 121 98 85 75 53 45 42 26 24 17 23 23 4 269 200 202 210 214 214 216 216 214 211 212 210 207 211 219
355 259 150 182 187 210 237 216 268 233 262 236 252 138 146 119 106 99 108 108 87 70 50 54 41 31 27 16 10 3 349 215 204 207 212 215 215 217 217 214 212 211 207 208
285 262 277 8 275 194 212 219 235 270 241 250 258 138 154 130 121 114 99 85 77 73 73 58 44 41 34 29 19 7 9 4 356 223 206 209 212 217 219 221 217 214 212 211
303 262 267 61 6 339 179 199 206 243 257 312 129 135 136 127 109 96 103 88 80 69 58 55 50 42 36 34 23 17 9 360 359 350 303 206 208 215 221 223 221 222 219 218
262 212 288 212 259 255 247 201 217 281 336 259 111 108 101 119 122 104 94 89 77 62 54 45 46 39 33 31 35 22 12 4 360 5 354 296 312 218 218 225 226 223 224 223
261 247 222 256 181 259 245 237 211 216 212 305 166 142 141 130 119 112 98 77 64 56 45 36 35 30 26 24 23 24 20 13 12 10 9 356 299 270 246 236 230 228 227 228
232 238 238 254 162 236 95 10 315 197 150 92 96 126 133 129 138 109 79 62 46 36 30 24 18 17 9 15 20 12 16 23 19 15 9 2 6 355 303 264 246 242 239 235
257 234 230 250 212 153 162 171 176 184 158 209 135 143 146 149 142 132 96 53 41 21 5 1 2 358 353 357 1 4 2 6 18 16 9 3 0 353 338 334 283 252 247 245
208 263 255 216 263 228 81 102 45 254 178 167 168 154 155 195 210 111 72 20 6 355 349 342 340 332 341 344 345 345 346 346 357 357 1 356 359 351 344 328 321 308 259 247
201 217 226 231 239 118 106 125 165 208 113 139 148 128 152 238 52 73 47 27 6 351 338 337 316 321 323 328 331 327 328 332 335 334 336 341 341 342 340 328 326 319 292 275
206 204 218 244 230 233 129 141 230 92 124 126 122 109 105 94 73 67 45 30 13 3 351 340 324 317 312 314 318 314 312 315 319 318 319 322 326 327 328 328 320 313 303 295
276 268 262 309 36 91 137 70 118 135 136 121 124 124 103 98 55 33 3 14 6 355 350 341 332 321 311 309 314 310 308 309 306 306 302 307 309 313 315 313 308 302 284 296
235 278 260 322 177 167 141 115 140 164 122 137 126 114 126 77 53 11 356 11 347 354 348 343 345 342 331 325 319 306 300 299 296 295 292 291 297 296 302 298 297 296 296 292
254 160 220 238 141 172 187 181 159 147 140 141 122 107 79 61 45 12 5 2 333 336 346 334 333 331 322 318 312 313 303 292 289 286 284 281 281 290 286 285 285 284 285 287
236 229 215 237 213 201 216 188 173 177 183 171 168 165 122 56 27 15 352 352 350 318 323 333 322 314 316 315 313 317 316 317 304 291 281 275 279 271 282 290 284 280 282 284